Clines Corners, NM

11:09 PM MST on February 27, 2017 (GMT -0700)
Clines Corner

Weather History for KCQC - May, 2013

Change the Weather History Date:

Sunday, May 12, 2013

  Actual Average (KSAF) Record (KSAF)
Temperature  
Mean Temperature 55 °F -  
Max Temperature 71 °F 73 °F 84 °F (2006)
Min Temperature 41 °F 36 °F 32 °F (2005)
Degree Days  
Heating Degree Days 10    
Growing Degree Days 5 (Base 50)    
Moisture  
Dew Point 28 °F    
Average Humidity 38    
Maximum Humidity 67    
Minimum Humidity 18    
Precipitation  
Precipitation 0.00 in - - ()
Sea Level Pressure  
Sea Level Pressure 30.18 in    
Wind  
Wind Speed 9 mph (West)    
Max Wind Speed 20 mph    
Max Gust Speed 26 mph    
Visibility 10 miles    
Events Rain    
Averages and records for this station are not official NWS values.
T = Trace of Precipitation, MM = Missing Value Source: NWS Daily Summary

Daily Weather History Graph

Daily Weather History Graph

Search for Another Location

Airport or City:

Trip Planner

Search our weather history database for the weather conditions in past years. The results will help you decide how hot, cold, wet, or windy it might be!

Date:

Astronomy

May. 12, 2013 Rise Set
Actual Time 6:01 AM MDT 7:57 PM MDT
Civil Twilight 5:33 AM MDT 8:25 PM MDT
Nautical Twilight 4:59 AM MDT 8:59 PM MDT
Astronomical Twilight 4:23 AM MDT 9:35 PM MDT
Moon 7:59 AM MDT (5/12) 10:25 PM MDT (5/12)
Length of Visible Light 14h 51m
Length of Day
13h 56m
Waxing Crescent, 7% of the Moon is Illuminated
May 12
Waxing Crescent
May 17
First Quarter
May 24
Full
May 31
Last Quarter
Jun 8
New

Hourly Weather History & Observations

Time (MDT) Temp. Windchill Dew Point Humidity Pressure Visibility Wind Dir Wind Speed Gust Speed Precip Events Conditions
12:53 AM 43.0 °F 38.2 °F 30.0 °F 60% 30.27 in 10.0 mi South 8.1 mph - N/A   Clear
1:53 AM 43.0 °F 39.5 °F 30.0 °F 60% 30.25 in 10.0 mi SSW 5.8 mph - N/A   Clear
2:53 AM 42.1 °F 38.4 °F 28.9 °F 60% 30.25 in 10.0 mi SW 5.8 mph - N/A   Clear
3:53 AM 41.0 °F 35.8 °F 28.9 °F 62% 30.24 in 10.0 mi West 8.1 mph - N/A   Clear
4:53 AM 42.1 °F 37.7 °F 30.9 °F 65% 30.24 in 10.0 mi NW 6.9 mph - N/A   Clear
5:53 AM 41.0 °F 36.4 °F 30.9 °F 67% 30.25 in 10.0 mi NW 6.9 mph - N/A   Clear
6:53 AM 42.1 °F 37.1 °F 30.9 °F 65% 30.25 in 10.0 mi WNW 8.1 mph - N/A   Clear
7:53 AM 52.0 °F - 32.0 °F 47% 30.24 in 10.0 mi West 9.2 mph - N/A   Clear
8:53 AM 57.0 °F - 30.0 °F 36% 30.22 in 10.0 mi West 12.7 mph - N/A   Clear
9:53 AM 59.0 °F - 30.0 °F 33% 30.22 in 10.0 mi West 11.5 mph - N/A   Clear
10:53 AM 64.0 °F - 28.9 °F 27% 30.20 in 10.0 mi WNW 18.4 mph 25.3 mph N/A   Clear
11:53 AM 66.0 °F - 28.0 °F 24% 30.17 in 10.0 mi NNW 16.1 mph 24.2 mph N/A   Clear
12:53 PM 66.9 °F - 25.0 °F 21% 30.14 in 10.0 mi Variable 4.6 mph - N/A   Clear
1:53 PM 57.0 °F - 32.0 °F 39% 30.22 in 7.0 mi Calm Calm - 0.00 in Rain Light Rain
2:16 PM 62.6 °F - 30.2 °F 30% 30.34 in 10.0 mi South 19.6 mph 26.5 mph 0.00 in Rain Light Rain
2:53 PM 69.1 °F - 28.0 °F 22% 30.12 in 10.0 mi West 12.7 mph 20.7 mph 0.00 in   Clear
3:53 PM 69.1 °F - 24.1 °F 18% 30.11 in 10.0 mi Variable 3.5 mph - N/A   Clear
4:53 PM 69.1 °F - 25.0 °F 19% 30.09 in 10.0 mi NNW 12.7 mph - N/A   Clear
5:53 PM 69.1 °F - 25.0 °F 19% 30.09 in 10.0 mi NE 12.7 mph 19.6 mph N/A   Mostly Cloudy
6:53 PM 66.0 °F - 26.1 °F 22% 30.09 in 10.0 mi NE 4.6 mph - N/A   Clear
7:53 PM 61.0 °F - 25.0 °F 25% 30.09 in 10.0 mi ENE 5.8 mph - N/A   Clear
8:53 PM 55.0 °F - 25.0 °F 31% 30.11 in 10.0 mi SSE 8.1 mph - N/A   Clear
9:53 PM 55.9 °F - 26.1 °F 32% 30.11 in 10.0 mi South 4.6 mph - N/A   Scattered Clouds
10:53 PM 52.0 °F - 24.1 °F 34% 30.12 in 10.0 mi SSE 8.1 mph - N/A   Partly Cloudy
11:53 PM 48.9 °F - 24.1 °F 38% 30.12 in 10.0 mi SSW 8.1 mph - N/A   Clear